Weather History for Artesia, NM

Change the Weather History Date:

Thursday, April 10, 2014

  Actual Average Record
Temperature  
Mean Temperature 70 °F -  
Max Temperature 86 °F 75 °F 90 °F (1948)
Min Temperature 53 °F 39 °F 28 °F (1973)
Cooling Degree Days 4    
Growing Degree Days 20 (Base 50)    
Moisture  
Dew Point 7 °F    
Average Humidity 9    
Maximum Humidity 18    
Minimum Humidity 4    
Precipitation  
Precipitation 0.00 in - - ()
Sea Level Pressure  
Sea Level Pressure 29.97 in    
Wind  
Wind Speed 9 mph (WSW)    
Max Wind Speed 20 mph    
Max Gust Speed 25 mph    
Visibility 10 miles    
Events      
Averages and records for this station are not official NWS values.
T = Trace of Precipitation, MM = Missing Value Source: NWS Daily Summary

Daily Weather History Graph

Daily Weather History Graph

Search for Another Location

Airport:

Trip Planner

Search our weather history database for the weather conditions in past years. The results will help you decide how hot, cold, wet, or windy it might be!

Date:

Astronomy

Apr. 10, 2014 Rise Set
Actual Time 6:34 AM MDT 7:24 PM MDT
Civil Twilight 6:09 AM MDT 7:49 PM MDT
Nautical Twilight 5:39 AM MDT 8:19 PM MDT
Astronomical Twilight 5:09 AM MDT 8:49 PM MDT
Moon 3:23 PM MDT (4/10) 3:44 AM MDT (4/10)
Length of Visible Light 13h 40m
Length of Day
12h 50m
Waxing Gibbous, 80% of the Moon is Illuminated
Apr 10
Waxing Gibbous
Apr 15
Full
Apr 22
Last Quarter
Apr 29
New
May 6
First Quarter

Hourly Weather History & Observations

Time (MDT) Temp. Dew Point Humidity Pressure Visibility Wind Dir Wind Speed Gust Speed Precip Events Conditions
12:15 AM 62.6 °F 8.6 °F 12% 29.99 in 10.0 mi WSW 11.5 mph - N/A   Clear
12:35 AM 59.0 °F 10.4 °F 15% 29.98 in 10.0 mi WSW 9.2 mph - N/A   Clear
12:55 AM 57.2 °F 10.4 °F 16% 29.98 in 10.0 mi West 10.4 mph - N/A   Clear
1:15 AM 55.4 °F 10.4 °F 17% 29.98 in 10.0 mi West 5.8 mph - N/A   Clear
1:35 AM 59.0 °F 8.6 °F 14% 29.97 in 10.0 mi SW 10.4 mph - N/A   Clear
1:55 AM 60.8 °F 8.6 °F 13% 29.97 in 10.0 mi SSW 11.5 mph 18.4 mph N/A   Clear
2:15 AM 62.6 °F 8.6 °F 12% 29.96 in 10.0 mi SSW 11.5 mph - N/A   Clear
2:35 AM 59.0 °F 10.4 °F 15% 29.95 in 10.0 mi South 9.2 mph - N/A   Clear
2:55 AM 57.2 °F 10.4 °F 16% 29.95 in 10.0 mi South 6.9 mph - N/A   Clear
3:15 AM 53.6 °F 10.4 °F 18% 29.94 in 10.0 mi South 5.8 mph - N/A   Clear
3:35 AM 64.4 °F 8.6 °F 11% 29.94 in 10.0 mi WSW 12.7 mph - N/A   Clear
3:55 AM 64.4 °F 8.6 °F 11% 29.95 in 10.0 mi Calm Calm - N/A   Clear
4:15 AM 57.2 °F 8.6 °F 14% 29.95 in 10.0 mi SSE 5.8 mph - N/A   Clear
4:35 AM 59.0 °F 8.6 °F 14% 29.95 in 10.0 mi SSW 8.1 mph - N/A   Clear
4:55 AM 55.4 °F 8.6 °F 15% 29.95 in 10.0 mi WSW 10.4 mph - N/A   Clear
5:15 AM 60.8 °F 8.6 °F 13% 29.96 in 10.0 mi Calm Calm - N/A   Clear
5:35 AM 57.2 °F 8.6 °F 14% 29.96 in 10.0 mi SSE 5.8 mph - N/A   Clear
5:55 AM 57.2 °F 8.6 °F 14% 29.96 in 10.0 mi North 9.2 mph - N/A   Clear
6:35 AM 60.8 °F 8.6 °F 13% 29.98 in 10.0 mi Calm Calm - N/A   Clear
6:55 AM 59.0 °F 8.6 °F 14% 29.99 in 10.0 mi NW 4.6 mph - N/A   Clear
7:15 AM 60.8 °F 8.6 °F 13% 30.00 in 10.0 mi WNW 9.2 mph - N/A   Clear
7:35 AM 64.4 °F 8.6 °F 11% 30.01 in 10.0 mi WNW 6.9 mph - N/A   Clear
7:55 AM 64.4 °F 10.4 °F 12% 30.01 in 10.0 mi East 4.6 mph - N/A   Clear
8:15 AM 62.6 °F 15.8 °F 16% 30.02 in 10.0 mi East 3.5 mph - N/A   Clear
8:35 AM 66.2 °F 12.2 °F 12% 30.03 in 10.0 mi Calm Calm - N/A   Clear
8:55 AM 68.0 °F 12.2 °F 12% 30.03 in 10.0 mi Calm Calm - N/A   Clear
9:15 AM 69.8 °F 14.0 °F 12% 30.04 in 10.0 mi WNW 8.1 mph - N/A   Clear
9:35 AM 75.2 °F 14.0 °F 10% 30.04 in 10.0 mi WNW 15.0 mph - N/A   Clear
9:55 AM 78.8 °F 14.0 °F 9% 30.03 in 10.0 mi WNW 16.1 mph 20.7 mph N/A   Clear
10:15 AM 80.6 °F 10.4 °F 7% 30.04 in 10.0 mi WNW 19.6 mph - N/A   Clear
10:35 AM 82.4 °F 8.6 °F 6% 30.04 in 10.0 mi WNW 15.0 mph - N/A   Clear
10:55 AM 82.4 °F 10.4 °F 7% 30.04 in 10.0 mi NW 15.0 mph - N/A   Clear
11:15 AM 82.4 °F 8.6 °F 6% 30.04 in 10.0 mi NW 10.4 mph 19.6 mph N/A   Clear
11:35 AM 84.2 °F 6.8 °F 5% 30.04 in 10.0 mi WNW 12.7 mph 20.7 mph N/A   Clear
11:55 AM 84.2 °F 6.8 °F 5% 30.03 in 10.0 mi NNW 16.1 mph 25.3 mph N/A   Clear
12:15 PM 84.2 °F 3.2 °F 5% 30.03 in 10.0 mi NNW 18.4 mph 24.2 mph N/A   Clear
12:35 PM 84.2 °F 1.4 °F 4% 30.02 in 10.0 mi NNW 17.3 mph 21.9 mph N/A   Clear
12:55 PM 84.2 °F 5.0 °F 5% 30.01 in 10.0 mi West 16.1 mph - N/A   Clear
1:35 PM 84.2 °F 5.0 °F 5% 30.00 in 10.0 mi WSW 5.8 mph - N/A   Clear
1:55 PM 84.2 °F 5.0 °F 5% 30.00 in 10.0 mi WSW 4.6 mph - N/A   Clear
2:15 PM 84.2 °F 6.8 °F 5% 29.99 in 10.0 mi WSW 6.9 mph - N/A   Clear
2:35 PM 84.2 °F 6.8 °F 5% 29.99 in 10.0 mi SW 4.6 mph - N/A   Clear
2:55 PM 84.2 °F 6.8 °F 5% 29.97 in 10.0 mi SSW 5.8 mph - N/A   Clear
3:15 PM 86.0 °F 8.6 °F 5% 29.96 in 10.0 mi SSW 6.9 mph - N/A   Clear
3:35 PM 86.0 °F 8.6 °F 5% 29.95 in 10.0 mi SSW 3.5 mph 16.1 mph N/A   Clear
3:55 PM 86.0 °F 8.6 °F 5% 29.93 in 10.0 mi South 10.4 mph 17.3 mph N/A   Clear
4:15 PM 86.0 °F 6.8 °F 5% 29.92 in 10.0 mi South 8.1 mph - N/A   Clear
4:55 PM 86.0 °F 6.8 °F 5% 29.91 in 10.0 mi West 8.1 mph - N/A   Clear
5:35 PM 86.0 °F 5.0 °F 5% 29.90 in 10.0 mi East 6.9 mph - N/A   Clear
5:55 PM 86.0 °F 5.0 °F 5% 29.89 in 10.0 mi NE 10.4 mph - N/A   Clear
6:15 PM 86.0 °F 5.0 °F 5% 29.90 in 10.0 mi ENE 4.6 mph - N/A   Clear
6:35 PM 86.0 °F 6.8 °F 5% 29.90 in 10.0 mi Calm Calm - N/A   Clear
6:55 PM 84.2 °F 6.8 °F 5% 29.90 in 10.0 mi NNW 3.5 mph - N/A   Clear
7:15 PM 82.4 °F 5.0 °F 5% 29.91 in 10.0 mi Calm Calm - N/A   Clear
7:35 PM 78.8 °F 5.0 °F 6% 29.91 in 10.0 mi Calm Calm - N/A   Clear
8:15 PM 69.8 °F 1.4 °F 7% 29.93 in 10.0 mi WSW 12.7 mph - N/A   Clear
8:35 PM 73.4 °F -0.4 °F 5% 29.94 in 10.0 mi WNW 9.2 mph - N/A   Clear
8:55 PM 68.0 °F -0.4 °F 7% 29.94 in 10.0 mi WSW 13.8 mph - N/A   Clear
9:15 PM 68.0 °F 1.4 °F 7% 29.95 in 10.0 mi West 13.8 mph - N/A   Clear
9:35 PM 66.2 °F 1.4 °F 8% 29.95 in 10.0 mi West 13.8 mph - N/A   Clear
9:55 PM 66.2 °F 1.4 °F 8% 29.95 in 10.0 mi West 15.0 mph - N/A   Clear
10:15 PM 66.2 °F -0.4 °F 7% 29.96 in 10.0 mi WSW 15.0 mph - N/A   Clear
10:35 PM 64.4 °F -0.4 °F 7% 29.96 in 10.0 mi WSW 12.7 mph - N/A   Clear
10:55 PM 64.4 °F -0.4 °F 7% 29.96 in 10.0 mi WSW 12.7 mph - N/A   Clear
11:15 PM 60.8 °F 1.4 °F 9% 29.96 in 10.0 mi WSW 11.5 mph - N/A   Clear
11:35 PM 60.8 °F 1.4 °F 9% 29.96 in 10.0 mi West 12.7 mph - N/A   Clear
11:55 PM 60.8 °F 1.4 °F 9% 29.96 in 10.0 mi West 16.1 mph - N/A   Clear